[[{"header":{"parameterUnit":"m.s-1","parameterCategory":1,"la1":30.2992,"la2":30.254,"lo1":-89.0895,"lo2":-89.0443,"dy":0.0025,"dx":0.0025,"nx":19,"ny":19,"refTime":"2026-05-05T09:00:00:Z","depth":0,"parameterNumber":2,"parameterNumberName":"U-component_of_WINDS"},"data":[0,0,0,-2.5141,-2.5141,-2.5154,-2.5154,-2.5174,-2.5174,0,0,0,0,0,0,0,0,0,0,0,-2.514,-2.514,-2.5141,-2.5141,-2.5154,-2.5154,-2.5174,-2.5174,0,0,0,0,0,0,0,0,0,0,0,-2.5139,-2.514,-2.514,-2.5142,-2.5154,-2.5154,-2.5174,-2.5163,0,0,0,0,0,0,0,0,0,0,-2.515,-2.5151,-2.514,-2.514,-2.5142,-2.5154,-2.5154,-2.5162,-2.5164,-2.517,0,-2.5176,0,-2.5175,-2.5176,-2.5176,0,0,0,-2.514,-2.515,-2.5151,-2.514,-2.5142,-2.5154,-2.5148,-2.5163,-2.5164,-2.5171,-2.5176,-2.5177,-2.5176,-2.5176,-2.5176,-2.5216,-2.5216,0,0,-2.5139,-2.5143,-2.515,-2.5152,-2.515,-2.5147,-2.5148,-2.5164,-2.5169,-2.5176,-2.5177,-2.5176,-2.5176,-2.5176,-2.5216,-2.5216,0,0,0,-2.5138,-2.5143,-2.5144,-2.5152,-2.5154,-2.5148,-2.5149,-2.5168,-2.5168,-2.5177,-2.5176,-2.5176,-2.5176,-2.5216,-2.5216,-2.5231,0,0,0,-2.5138,-2.5142,-2.5143,-2.5146,-2.5153,-2.5161,-2.5153,-2.5167,-2.5169,-2.5176,-2.5176,-2.5177,-2.5215,-2.5216,-2.523,-2.5237,0,0,0,-2.5138,-2.5142,-2.5145,-2.5146,-2.5151,-2.5161,-2.5162,-2.5167,-2.5168,-2.5176,-2.5177,-2.5215,-2.5216,-2.5229,-2.5236,-2.5248,0,0,0,-2.5139,-2.5159,-2.5145,-2.5166,-2.5151,-2.5171,-2.5161,-2.5176,-2.5184,-2.5176,-2.5215,-2.5216,-2.5229,-2.5235,-2.5247,-2.5258,-2.5263,0,0,-2.5166,-2.5162,-2.5174,-2.5162,-2.5185,-2.5168,-2.5193,-2.5198,-2.5195,-2.5209,-2.521,-2.5231,-2.5236,-2.5248,-2.5294,-2.5298,0,0,0,-2.5184,-2.5192,-2.5198,-2.5206,-2.521,-2.5213,-2.5213,-2.5215,-2.5227,-2.5203,-2.5239,-2.5242,-2.5249,-2.5254,-2.5257,-2.5262,-2.5219,-2.5219,-2.5219,-2.5225,-2.5221,-2.5241,-2.5238,-2.5247,-2.5247,-2.5253,-2.5255,-2.5249,-2.5258,-2.5261,-2.529,-2.5295,-2.5298,-2.5303,-2.5268,-2.5268,-2.5268,-2.5268,-2.5262,-2.5273,-2.5265,-2.5281,-2.5277,-2.529,-2.5292,-2.5287,-2.5299,-2.5287,-2.5292,-2.5278,-2.5303,-2.5307,-2.5269,-2.5269,-2.5269,-2.5269,-2.5269,-2.5287,-2.5291,-2.5293,-2.5304,-2.5314,-2.5312,-2.5323,-2.532,-2.5316,-2.5322,-2.5325,-2.5324,-2.5322,-2.5324,-2.5324,-2.5324,-2.5324,-2.5325,-2.5325,-2.5311,-2.5313,-2.5323,-2.5329,-2.5334,-2.534,-2.5341,-2.5346,-2.535,-2.5346,-2.5346,-2.5338,-2.5307,-2.5297,-2.5326,-2.5326,-2.5326,-2.5325,-2.5325,-2.5346,-2.5337,-2.5353,-2.5358,-2.5365,-2.5374,-2.537,-2.538,-2.5383,-2.5389,-2.5381,-2.5359,-2.5354,-2.5351,-2.5344,-2.5383,-2.5383,-2.5383,-2.5383,-2.5365,-2.5363,-2.5378,-2.5386,-2.5393,-2.5391,-2.5409,-2.5411,-2.5411,-2.5413,-2.5408,-2.5398,-2.5395,-2.5392,-2.5389,-2.5381,-2.5429,-2.5429,-2.5429,-2.5386,-2.5385,-2.54,-2.54,-2.5406,-2.5411,-2.5427,-2.5436,-2.5435,-2.5431,-2.5414,-2.5412,-2.5397,-2.5392,-2.5385,-2.5379,-2.5366,0,0]},{"header":{"parameterUnit":"m.s-1","parameterCategory":1,"la1":30.2992,"la2":30.254,"lo1":-89.0895,"lo2":-89.0443,"dy":0.0025,"dx":0.0025,"nx":19,"ny":19,"refTime":"2026-05-05T09:00:00:Z","depth":0,"parameterNumber":3,"parameterNumberName":"V-component_of_WINDS"},"data":[0,0,0,6.1525,6.1526,6.1577,6.1577,6.165,6.1651,0,0,0,0,0,0,0,0,0,0,0,6.1515,6.1516,6.1525,6.1526,6.1577,6.1577,6.165,6.1651,0,0,0,0,0,0,0,0,0,0,0,6.1515,6.1516,6.1516,6.1526,6.1577,6.1577,6.165,6.1608,0,0,0,0,0,0,0,0,0,0,6.1557,6.1554,6.1515,6.1516,6.1527,6.1577,6.1577,6.1606,6.1611,6.1631,0,6.165,0,6.1652,6.1656,6.1656,0,0,0,6.1521,6.155,6.1559,6.1517,6.1527,6.1577,6.1553,6.1609,6.1614,6.1637,6.1651,6.1654,6.1653,6.1657,6.1657,6.1792,6.1793,0,0,6.1519,6.1526,6.1555,6.1563,6.1557,6.1551,6.1554,6.1612,6.1627,6.1652,6.1655,6.1654,6.1657,6.1658,6.1791,6.1792,0,0,0,6.1514,6.1525,6.1532,6.156,6.1569,6.1553,6.1556,6.1625,6.1627,6.1656,6.1655,6.1658,6.1659,6.179,6.1792,6.1845,0,0,0,6.1512,6.1522,6.1531,6.1537,6.1568,6.1597,6.1568,6.1623,6.1629,6.1655,6.1658,6.166,6.1789,6.1791,6.1841,6.1868,0,0,0,6.151,6.1521,6.1531,6.1537,6.1559,6.1596,6.1601,6.1624,6.1629,6.1657,6.166,6.1789,6.1791,6.1838,6.1863,6.191,0,0,0,6.1509,6.1573,6.1532,6.1603,6.1559,6.1629,6.1601,6.1651,6.1681,6.1658,6.179,6.1792,6.1837,6.186,6.1907,6.1953,6.1972,0,0,6.1595,6.1584,6.1626,6.159,6.167,6.162,6.1707,6.1725,6.1718,6.1768,6.1771,6.1842,6.1863,6.1909,6.2071,6.2087,0,0,0,6.1656,6.1686,6.1705,6.1736,6.1754,6.1772,6.1776,6.1784,6.1826,6.1746,6.187,6.1882,6.1908,6.193,6.1943,6.1967,6.1801,6.1801,6.1801,6.1788,6.178,6.185,6.1849,6.1879,6.1886,6.1909,6.192,6.1899,6.1929,6.1945,6.2044,6.207,6.208,6.2105,6.1965,6.1966,6.1966,6.1966,6.1915,6.1959,6.1935,6.1995,6.1986,6.2035,6.2044,6.2029,6.2074,6.2031,6.2054,6.201,6.2097,6.2119,6.197,6.1969,6.1969,6.1968,6.1968,6.2004,6.2024,6.2034,6.2081,6.2117,6.2113,6.216,6.2148,6.2137,6.2159,6.2177,6.2176,6.2177,6.2168,6.2169,6.2169,6.2169,6.217,6.217,6.2093,6.2102,6.2144,6.2172,6.2192,6.2218,6.2227,6.2246,6.2265,6.2253,6.2253,6.2233,6.2106,6.2077,6.2175,6.2174,6.2173,6.2173,6.2173,6.223,6.2198,6.2263,6.2284,6.2318,6.2357,6.2343,6.2385,6.2398,6.2423,6.2397,6.2304,6.2292,6.2281,6.2257,6.2397,6.2397,6.2397,6.2397,6.2307,6.23,6.2367,6.2402,6.2435,6.243,6.2505,6.2514,6.2517,6.2526,6.2503,6.2469,6.2459,6.2453,6.2438,6.2416,6.2593,6.2593,6.2593,6.2393,6.239,6.2456,6.2462,6.2489,6.2512,6.2583,6.2625,6.2621,6.2601,6.2534,6.2525,6.247,6.2451,6.2431,6.2409,6.2367,0,0]}]]